• In Portugal
  • List of Countries
  • For 7 days
  • Water Temperature
  • Satellite Maps
  • Weather Map
  • Weather Widgets
  • user-avatar
    Login

    Hourly Weather Bejrut

    Today, 23 May, Wednesday

    Time Temperature Precipitation Wind Pressure Humidity
    00:00 +31°C° 0 mm 2 mps 755 mmHg 33%
    01:00 +30°C° 0 mm 2 mps 755 mmHg 35%
    02:00 +30°C° 0 mm 3 mps 754 mmHg 37%
    03:00 +29°C° 0 mm 3 mps 754 mmHg 41%
    04:00 +28°C° 0 mm 3 mps 754 mmHg 45%
    05:00 +27°C° 0 mm 2 mps 754 mmHg 50%
    06:00 +29°C° 0 mm 3 mps 755 mmHg 44%
    07:00 +30°C° 0 mm 3 mps 755 mmHg 38%
    08:00 +33°C° 0 mm 3 mps 755 mmHg 34%
    09:00 +34°C° 0 mm 3 mps 755 mmHg 32%
    10:00 +35°C° 0 mm 4 mps 755 mmHg 30%
    11:00 +35°C° 0 mm 4 mps 755 mmHg 29%
    12:00 +35°C° 0 mm 4 mps 755 mmHg 30%
    13:00 +35°C° 0 mm 4 mps 755 mmHg 32%
    14:00 +33°C° 0 mm 5 mps 755 mmHg 43%
    15:00 +33°C° 0 mm 4 mps 755 mmHg 45%
    16:00 +32°C° 0 mm 4 mps 755 mmHg 47%
    17:00 +32°C° 0 mm 4 mps 755 mmHg 49%
    18:00 +29°C° 0 mm 4 mps 755 mmHg 58%
    19:00 +28°C° 0 mm 3 mps 755 mmHg 66%
    20:00 +27°C° 0 mm 3 mps 755 mmHg 75%
    21:00 +26°C° 0 mm 3 mps 756 mmHg 75%
    22:00 +26°C° 0 mm 3 mps 756 mmHg 75%
    23:00 +25°C° 0 mm 2 mps 756 mmHg 75%

    Tomorrow, 24 May, Thursday

    Time Temperature Precipitation Wind Pressure Humidity
    00:00 +25°C° 0 mm 2 mps 755 mmHg 72%
    01:00 +25°C° 0 mm 2 mps 755 mmHg 68%
    02:00 +24°C° 0 mm 3 mps 755 mmHg 65%
    03:00 +24°C° 0 mm 3 mps 755 mmHg 64%
    04:00 +24°C° 0 mm 3 mps 755 mmHg 62%
    05:00 +24°C° 0 mm 3 mps 755 mmHg 61%
    06:00 +26°C° 0 mm 3 mps 755 mmHg 55%
    07:00 +28°C° 0 mm 4 mps 755 mmHg 49%
    08:00 +30°C° 0 mm 4 mps 755 mmHg 43%
    09:00 +32°C° 0 mm 4 mps 755 mmHg 42%
    10:00 +33°C° 0 mm 4 mps 755 mmHg 41%
    11:00 +34°C° 0 mm 5 mps 755 mmHg 40%
    12:00 +34°C° 0 mm 5 mps 754 mmHg 42%
    13:00 +34°C° 0 mm 5 mps 754 mmHg 43%
    14:00 +34°C° 0 mm 5 mps 754 mmHg 45%
    15:00 +33°C° 0 mm 4 mps 753 mmHg 46%
    16:00 +33°C° 0 mm 4 mps 753 mmHg 46%
    17:00 +31°C° 0 mm 3 mps 753 mmHg 47%
    18:00 +30°C° 0 mm 3 mps 753 mmHg 53%
    19:00 +29°C° 0 mm 3 mps 753 mmHg 59%
    20:00 +27°C° 0 mm 3 mps 753 mmHg 66%
    21:00 +27°C° 0 mm 3 mps 753 mmHg 64%
    22:00 +27°C° 0 mm 3 mps 753 mmHg 63%
    23:00 +26°C° 0 mm 4 mps 753 mmHg 62%

    Day after tomorrow, 25 May, Friday

    Time Temperature Precipitation Wind Pressure Humidity
    00:00 +26°C° 0 mm 3 mps 753 mmHg 55%
    01:00 +26°C° 0 mm 3 mps 753 mmHg 49%
    02:00 +26°C° 0 mm 3 mps 752 mmHg 42%
    03:00 +26°C° 0 mm 3 mps 752 mmHg 44%
    04:00 +26°C° 0 mm 3 mps 752 mmHg 47%
    05:00 +26°C° 0 mm 3 mps 752 mmHg 49%
    06:00 +27°C° 0 mm 4 mps 752 mmHg 46%
    07:00 +29°C° 0 mm 4 mps 752 mmHg 43%
    08:00 +32°C° 0 mm 4 mps 753 mmHg 41%
    09:00 +33°C° 0 mm 4 mps 753 mmHg 39%
    10:00 +34°C° 0 mm 4 mps 753 mmHg 38%
    11:00 +34°C° 0 mm 4 mps 753 mmHg 36%
    12:00 +34°C° 0 mm 5 mps 752 mmHg 37%
    13:00 +34°C° 0 mm 5 mps 752 mmHg 37%
    14:00 +34°C° 0 mm 5 mps 752 mmHg 38%
    15:00 +34°C° 0 mm 4 mps 752 mmHg 41%
    16:00 +33°C° 0 mm 3 mps 752 mmHg 44%
    17:00 +31°C° 0 mm 3 mps 752 mmHg 46%
    18:00 +30°C° 0 mm 2 mps 752 mmHg 52%
    19:00 +29°C° 0 mm 2 mps 752 mmHg 57%
    20:00 +28°C° 0 mm 1 mps 752 mmHg 62%
    21:00 +28°C° 0 mm 1 mps 752 mmHg 60%
    22:00 +27°C° 0 mm 1 mps 752 mmHg 57%
    23:00 +27°C° 0 mm 1 mps 752 mmHg 55%

    26 May, Saturday

    Time Temperature Precipitation Wind Pressure Humidity
    00:00 +27°C° 0 mm 1 mps 752 mmHg 55%
    01:00 +26°C° 0 mm 2 mps 752 mmHg 55%
    02:00 +26°C° 0 mm 2 mps 752 mmHg 55%
    03:00 +26°C° 0 mm 2 mps 752 mmHg 59%
    04:00 +25°C° 0 mm 2 mps 752 mmHg 62%
    05:00 +25°C° 0 mm 1 mps 752 mmHg 65%
    06:00 +27°C° 0 mm 2 mps 752 mmHg 57%
    07:00 +29°C° 0 mm 2 mps 752 mmHg 49%
    08:00 +31°C° 0 mm 2 mps 753 mmHg 41%
    09:00 +33°C° 0 mm 3 mps 753 mmHg 39%
    10:00 +34°C° 0 mm 3 mps 753 mmHg 37%
    11:00 +35°C° 0 mm 4 mps 753 mmHg 35%
    12:00 +35°C° 0.1 mm 4 mps 752 mmHg 37%
    13:00 +35°C° 0.1 mm 4 mps 752 mmHg 38%
    14:00 +35°C° 0.1 mm 4 mps 752 mmHg 40%
    15:00 +34°C° 0 mm 3 mps 752 mmHg 42%
    16:00 +33°C° 0 mm 3 mps 752 mmHg 44%
    17:00 +33°C° 0 mm 3 mps 752 mmHg 47%
    18:00 +31°C° 0 mm 2 mps 752 mmHg 53%
    19:00 +29°C° 0 mm 2 mps 752 mmHg 60%
    20:00 +28°C° 0 mm 1 mps 753 mmHg 66%
    21:00 +28°C° 0 mm 2 mps 753 mmHg 67%
    22:00 +27°C° 0 mm 2 mps 753 mmHg 67%
    23:00 +27°C° 0 mm 2 mps 754 mmHg 68%

    27 May, Sunday

    Time Temperature Precipitation Wind Pressure Humidity
    00:00 +26°C° 0 mm 2 mps 753 mmHg 68%
    01:00 +26°C° 0 mm 2 mps 753 mmHg 68%
    02:00 +25°C° 0 mm 1 mps 753 mmHg 68%
    03:00 +25°C° 0 mm 2 mps 753 mmHg 66%
    04:00 +25°C° 0 mm 2 mps 753 mmHg 65%
    05:00 +25°C° 0 mm 2 mps 753 mmHg 64%
    06:00 +28°C° 0 mm 2 mps 754 mmHg 53%
    07:00 +30°C° 0 mm 2 mps 754 mmHg 43%
    08:00 +32°C° 0 mm 2 mps 754 mmHg 32%
    09:00 +34°C° 0 mm 3 mps 754 mmHg 33%
    10:00 +35°C° 0 mm 3 mps 754 mmHg 33%
    11:00 +36°C° 0 mm 4 mps 754 mmHg 33%
    12:00 +36°C° 0 mm 4 mps 754 mmHg 36%
    13:00 +35°C° 0 mm 3 mps 754 mmHg 39%
    14:00 +35°C° 0 mm 3 mps 754 mmHg 42%
    15:00 +34°C° 0 mm 3 mps 754 mmHg 46%
    16:00 +32°C° 0 mm 2 mps 754 mmHg 50%
    17:00 +31°C° 0 mm 1 mps 754 mmHg 54%
    18:00 +31°C° 0 mm 2 mps 754 mmHg 53%
    19:00 +30°C° 0 mm 3 mps 754 mmHg 52%
    20:00 +30°C° 0 mm 4 mps 754 mmHg 50%
    21:00 +30°C° 0.1 mm 4 mps 754 mmHg 48%
    22:00 +30°C° 0.1 mm 4 mps 754 mmHg 46%
    23:00 +30°C° 0.1 mm 5 mps 754 mmHg 44%

    28 May, Monday

    Time Temperature Precipitation Wind Pressure Humidity
    00:00 +30°C° 0 mm 4 mps 753 mmHg 46%
    01:00 +29°C° 0 mm 4 mps 753 mmHg 48%
    02:00 +29°C° 0 mm 3 mps 752 mmHg 50%
    03:00 +29°C° 0 mm 3 mps 752 mmHg 47%
    04:00 +30°C° 0 mm 3 mps 752 mmHg 45%
    05:00 +30°C° 0 mm 4 mps 752 mmHg 42%
    06:00 +31°C° 0 mm 3 mps 752 mmHg 40%
    07:00 +33°C° 0 mm 3 mps 752 mmHg 37%
    08:00 +34°C° 0 mm 2 mps 753 mmHg 35%
    09:00 +35°C° 0 mm 2 mps 752 mmHg 33%
    10:00 +36°C° 0 mm 2 mps 752 mmHg 32%
    11:00 +37°C° 0 mm 2 mps 752 mmHg 30%
    12:00 +36°C° 0.1 mm 2 mps 752 mmHg 32%
    13:00 +36°C° 0.1 mm 2 mps 751 mmHg 34%
    14:00 +35°C° 0.1 mm 2 mps 751 mmHg 35%
    15:00 +35°C° 0 mm 2 mps 751 mmHg 35%
    16:00 +35°C° 0 mm 2 mps 751 mmHg 35%
    17:00 +36°C° 0 mm 2 mps 751 mmHg 35%
    18:00 +34°C° 0 mm 2 mps 751 mmHg 38%
    19:00 +32°C° 0 mm 2 mps 751 mmHg 40%
    20:00 +31°C° 0 mm 2 mps 751 mmHg 43%
    21:00 +31°C° 0 mm 2 mps 751 mmHg 43%
    22:00 +30°C° 0 mm 2 mps 751 mmHg 43%
    23:00 +30°C° 0 mm 2 mps 751 mmHg 44%
    Show more